Location: Brienzwiler
(46.7508°N, 8.1014°E)
Time: 16:38:43
(UTC+00:00)

Cosmos 1825 Rocket - Pass Details

Date: 05 July 2020
Orbit: 603 x 631 km, 82.5° (Epoch: 11 August)

Event Time Altitude Azimuth Distance (km) Brightness Sun altitude
Exits shadow 20:10:14 - 169° (S) 2,580 6.2 -6.9°
Reaches altitude 10° 20:11:43 10° 165° (SSE) 1,995 5.6 -7.1°
Maximum altitude 20:15:56 45° 93° (E) 858 4.0 -7.6°
Drops below altitude 10° 20:20:13 10° 21° (NNE) 2,022 6.6 -8.2°
Sets 20:22:32 0° 15° (NNE) 2,936 7.5 -8.4°
